ATLAS 5 CENTAUR DEB, 46665

Orbit data source: Space-Track

ATLAS 5 CENTAUR DEB, 46665 is space debris in HEO originally from a launch on Wed, 17 Oct 2018 UTC launched from the Air Force Eastern Test Range (AFETR). Debris objects in space refer to the collection of defunct objects orbiting the Earth. Examples of debris include non-operational satellites, rocket bodies, and fragments generated from explosions, collisions, or faulty payload assembly.

Loading next visibility...
Identifier
46665, 2018-079CT
Orbit
HEO
Country
Flag of USUS
Related business
Flag of USUnited Launch Alliance/Lockheed Martin (US)
Manufacturer
ULA Decatur
Mission
Spacecraft
Bus & Motor
Unknown
Mass
Unknown
Launch date (UTC)
2018-10-17 (8 years ago)
Launch vehicle
Unknown
Launch site
Air Force Eastern Test Range (AFETR)
Object type
Payload
Rocket body
Debris
Shape & HBR
Unknown shape, 1.1 m
Radar Cross Section
Small (<0.1 m²)

Expand to show TLE details & history
Last TLE update: 18 hours ago

TLE from 18 hours ago
0 ATLAS 5 CENTAUR DEB
1 46665U 18079CT  26255.28510843 -.00000139  00000-0  00000-0 0  9997
2 46665  13.5442  53.3300 4569830 267.0246  41.7586  1.71546315 37132
Epoch: 2026-09-12T06:50Z
TLE epoch observation values (Epoch: 2026-09-12T06:50:33.368Z)
Latitude
0.00001°
Longitude
-40.54297°
Altitude
17,477.366 km
Speed
4.46 km/s
True Right ascension
03h 33m 34s
True Declination
0° 00' 00"
Sunlit
Object was in daylight at epoch
Visualization orbit readout
Latitude
Unknown
Longitude
Unknown
Altitude
Unknown
Speed
Unknown
Apparent Right ascension
Unknown
Apparent Declination
Unknown
Sunlit
N/A
Visualization observer readout
Local Sidereal Time
17:12:42
Azimuth
Unknown
Elevation
Unknown
Doppler factor
Unknown
Orbital elements
Apogee altitude
36,571.982 km
Perigee altitude
9,629.356 km
Semi-major axis
29,478.806 km
Eccentricity
0.45698
Inclination
13.5442°
RAAN
53.33°
Arg. of periapsis
267.0246°
True anomaly
93.10496°
Mean anomaly
41.7586°
Eccentric anomaly
65.60396°
Mean motion
0.42882 °/min
Orbital period
839.51 mins
BSTAR
0
Loading maneuver chart data...
Computing Atmospheric mass density...

Documentation

Showing up to 5 results
|